Regional Weather Roundup
Issued by NWS

Home | Current Version | Previous Version | Graphics & Text | Print | Product List | Glossary On
Versions: 1 2 3 4 5 6 7 8 9 10 11 12 13 14 15 16 17 18 19 20 21 22 23 24 25 26 27 28 29 30 31 32 33 34 35 36 37 38 39 40 41 42 43 44 45 46 47 48 49 50
000
ASUS43 KLMK 211310
RWRKY
KENTUCKY REGIONAL WEATHER ROUNDUP
NATIONAL WEATHER SERVICE LOUISVILLE KY
800 AM EST WED FEB 21 2018

NOTE "FAIR" INDICATES FEW OR NO CLOUDS BELOW 12,000 FEET
WITH NO SIGNIFICANT WEATHER AND/OR OBSTRUCTIONS TO VISIBILITY.

KYZ001>023-026-027-061>063-070>075-211400-
WESTERN AND SOUTH CENTRAL KENTUCKY

CITY           SKY/WX    TMP DP  RH WIND       PRES   REMARKS
PADUCAH        LGT RAIN  39  35  86 N14G23    30.34R WCI  31
HENDERSON      LGT RAIN  41  38  89 NW12      30.35R
OWENSBORO      LGT RAIN  45  43  93 N12       30.31R
HOPKINSVILLE   DRIZZLE   54  54 100 N8        30.29R
BOWLING GREEN  LGT RAIN  60  56  86 NW13G18   30.28R
GLASGOW        CLOUDY    69  61  76 SW14G22   30.24R
$$

KYZ024-025-028>034-038-045-046-053-211400-
NORTH CENTRAL KENTUCKY

CITY           SKY/WX    TMP DP  RH WIND       PRES   REMARKS
LOUISVILLE/SDF LGT RAIN  59  57  93 NW3       30.27R FOG
LOUISVILLE/LOU LGT RAIN  59  59 100 CALM      30.28R
FORT KNOX      LGT RAIN  57  57 100 NW7       30.27R FOG
$$

KYZ035>037-039>044-047>052-055>060-089>105-211400-
NORTHEAST KENTUCKY

CITY           SKY/WX    TMP DP  RH WIND       PRES   REMARKS
LEXINGTON      CLOUDY    70  60  70 S14G24    30.23R
COVINGTON      LGT RAIN  56  56 100 NW8       30.28R FOG
FRANKFORT      CLOUDY    59  55  87 NW13      30.27R
$$

KYZ054-064>069-076>088-106>120-211400-
SOUTHEAST KENTUCKY

CITY           SKY/WX    TMP DP  RH WIND       PRES   REMARKS
JACKSON        FAIR      67  57  70 VRB6      30.27R
LONDON         LGT RAIN  69  59  70 SW10G18   30.29R
SOMERSET       RAIN      64  61  88 MISG      30.28R
MIDDLESBORO    CLOUDY    66  62  87 S8G16     30.33R
MONTICELLO     NOT AVBL
$$





USA.gov is the U.S. government's official web portal to all federal, state and local government web resources and services.